FENGYUN 1C DEB

Satellite information

Favourite Embed

Satellite Type and Status

DEBRISIN ORBIT

Key statistics

Satellite FENGYUN 1C DEB at a glance.

Uptime

9659

Days in orbit

Revolutions

≈ 14.2

Per day

Orbit

SSO

Sun Synchronous Orbit

Inclination

99.3

Latest

Satellite identification and parameters

Extended collection of information and parameters for FENGYUN 1C DEB.

Object identification

Identified? True

Debris? True

Object name: FENGYUN 1C DEB

International designator: 1999-025BW

Object number (NORAD): 29780

Object ID (CCSDS): 29780

Country: PEOPLES REPUBLIC OF CHINA (PRC)

Current information (Y/N): Y

RCS size: SMALL

Orbital parameters

Period: 101.375 minutes

Inclination: 99.2721 deg

SMA: 7201.913 km

Apoapsis: 853.873 km

Periapsis: 793.684 km

RAAN: 209.9393 deg

Eccentricy: 0.00417868

Argument of periapsis: 290.6316 deg

Mean anomaly: 69.038 deg

Mean motion: 14.20466292 rev/day

Mean motion (dot): 0.00006066 rev/day2

B* drag term: 0.0028223495 1/REarth

Two-line elements (TLE)

Creation date: Oct. 19, 2025, 2:20 a.m.

Reference frame: TEME

Reference center: EARTH

Epoch: Oct. 18, 2025, 5:08 p.m. UTC

TLE line 0: 0 FENGYUN 1C DEB

TLE line 1: 1 29780U 99025BW 25291.71392972 .00006066 00000-0 28223-2 0 9997

TLE line 2: 2 29780 99.2721 209.9393 0041787 290.6316 69.0380 14.20466292962972

Live tracking on map

Real-time ground track for satellite FENGYUN 1C DEB.

In-orbit conjunctions

A list of the most updated potential collisions computed for object FENGYUN 1C DEB.

Target Orbit TCA Probability of collision Miss distance Type
DELTA 1 DEB SSO 2025-02-22 12:27:43 0.0002356604 38.0 (m) DEBRIS
FENGYUN 1C DEB SSO 2025-02-22 04:51:21 0.0001573719 83.0 (m) DEBRIS
CZ-6A DEB LEO 2024-10-24 04:25:07 0.0001083556 326.0 (m) DEBRIS
SL-16 DEB LEO 2024-06-08 19:04:01 0.0001436488 62.0 (m) DEBRIS

Associated space launch

Chinese polar orbiting meteorological satellite

FENGYUN 1C DEB was lifted into orbit during the mission ‘Long March 4B | Feng Yun 1C’, on board a Long March 4B space rocket.

The launch took place on May 10, 1999, 1:33 a.m. from Launch Complex 7.

For more information about the launch, click the button.

Launch to space Long March 4B | Feng Yun 1C
Long March 4B | Feng Yun 1C

Agency: N/A

Status: Launch Successful

Launch date: May 10, 1999, 1:33 a.m. UTC

Rocket: Long March 4B

Launch pad: Launch Complex 7

Location: Taiyuan Satellite Launch Center, People's Republic of China

...

Latest news about this satellite

There are no fresh news available about this satellite. Check back as we update our databases every day.


Newsletter sign-up

Weekly statistics, charts and insights to help you stay on top of the space industry.